Afton Municipal Airport, WY

8:47 AM MST on December 06, 2019 (GMT -0700)
Afton Municipal

Weather History for KAFO - October, 2019

Change the Weather History Date:

Monday, October 21, 2019

  Actual Average Record
Temperature  
Mean Temperature 34 °F -  
Max Temperature 39 °F 60 °F 64 °F (2018)
Min Temperature 28 °F 23 °F 21 °F (2016)
Degree Days  
Heating Degree Days 32    
Moisture  
Dew Point 28 °F    
Average Humidity 86    
Maximum Humidity 100    
Minimum Humidity 65    
Precipitation  
Precipitation 0.00 in - - ()
Sea Level Pressure  
Sea Level Pressure 30.16 in    
Wind  
Wind Speed 3 mph ()    
Max Wind Speed 9 mph    
Max Gust Speed -    
Visibility 7.1 miles    
Events Snow    
Averages and records for this station are not official NWS values.
T = Trace of Precipitation, MM = Missing Value Source: Averaged Metar Reports

Daily Weather History Graph

Daily Weather History Graph

Search for Another Location

Airport or City:

Astronomy

Oct. 21, 2019 Rise Set
Actual Time 7:43 AM MDT 6:32 PM MDT
Civil Twilight 7:15 AM MDT 7:00 PM MDT
Nautical Twilight 6:42 AM MDT 7:33 PM MDT
Astronomical Twilight 6:09 AM MDT 8:06 PM MDT
Moon No Moon Rise 3:09 PM MDT (10/21)
Length of Visible Light 11h 45m
Length of Day
10h 48m
Waning Gibbous, 47% of the Moon is Illuminated
Oct 21
Waning Gibbous
Oct 27
New
Nov 4
First Quarter
Nov 12
Full
Nov 19
Last Quarter

Hourly Weather History & Observations

Time (MDT) Temp. Windchill Dew Point Humidity Pressure Visibility Wind Dir Wind Speed Gust Speed Precip Events Conditions
12:15 AM 30.2 °F 21.9 °F 26.6 °F 86% 30.05 in 10.0 mi South 9.2 mph - N/A   Overcast
12:35 AM 30.2 °F 24.3 °F 26.6 °F 86% 30.05 in 10.0 mi South 5.8 mph - N/A Snow Light Snow
12:55 AM 30.2 °F 26.7 °F 26.6 °F 86% 30.05 in 3.0 mi SSE 3.5 mph - N/A Snow Light Snow
1:15 AM 30.2 °F - 26.6 °F 86% 30.05 in 10.0 mi Calm Calm - N/A Snow Light Snow
1:35 AM 30.2 °F 25.4 °F 26.6 °F 86% 30.03 in 5.0 mi SSW 4.6 mph - N/A Snow Light Snow
1:55 AM 30.2 °F 24.3 °F 26.6 °F 86% 30.03 in 5.0 mi South 5.8 mph - N/A Snow Light Snow
2:15 AM 30.2 °F - 26.6 °F 86% 30.03 in 5.0 mi Calm Calm - N/A Snow Light Snow
2:35 AM 28.4 °F - 26.6 °F 93% 30.02 in 5.0 mi Calm Calm - N/A Snow Light Snow
2:55 AM 30.2 °F - 28.4 °F 93% 30.03 in 2.0 mi North - - N/A Snow Light Snow
3:15 AM 28.4 °F - 28.4 °F 100% 30.03 in 5.0 mi North - - N/A Snow Light Snow
3:35 AM 28.4 °F - 28.4 °F 100% 30.03 in 3.0 mi Calm Calm - N/A Snow Light Snow
3:55 AM 30.2 °F - 28.4 °F 93% 30.03 in 1.8 mi Calm Calm - N/A Snow Light Snow
4:15 AM 28.4 °F - 28.4 °F 100% 30.03 in 1.0 mi North - - N/A Snow Snow
4:35 AM 28.4 °F - 28.4 °F 100% 30.03 in 1.2 mi North - - N/A Snow Light Snow
4:55 AM 28.4 °F - 28.4 °F 100% 30.03 in 1.5 mi North - - N/A Snow Light Snow
5:15 AM 28.4 °F - 28.4 °F 100% 30.03 in 1.8 mi North - - N/A Snow Light Snow
5:35 AM 28.4 °F - 28.4 °F 100% 30.04 in 1.8 mi North - - N/A Snow Light Snow
5:55 AM 30.2 °F - 28.4 °F 93% 30.05 in 1.8 mi North - - N/A Snow Light Snow
6:15 AM 28.4 °F - 28.4 °F 100% 30.05 in 2.0 mi North - - N/A   Overcast
6:35 AM 28.4 °F 24.6 °F 28.4 °F 100% 30.06 in 2.0 mi North 3.5 mph - N/A   Overcast
6:55 AM 28.4 °F 24.6 °F 28.4 °F 100% 30.07 in 1.2 mi North 3.5 mph - N/A Snow Snow
7:15 AM 28.4 °F - 28.4 °F 100% 30.08 in 1.0 mi Calm Calm - N/A Snow Snow
7:35 AM 28.4 °F - 28.4 °F 100% 30.08 in 1.2 mi Calm Calm - N/A Snow Light Snow
7:55 AM 28.4 °F 24.6 °F 28.4 °F 100% 30.09 in 3.0 mi North 3.5 mph - N/A Snow Light Snow
8:15 AM 28.4 °F - 28.4 °F 100% 30.11 in 1.8 mi Calm Calm - N/A Snow Light Snow
8:35 AM 28.4 °F - 28.4 °F 100% 30.11 in 1.8 mi Calm Calm - N/A Snow Light Snow
8:55 AM 28.4 °F - 28.4 °F 100% 30.12 in 2.5 mi Calm Calm - N/A Snow Light Snow
9:15 AM 30.2 °F - 28.4 °F 93% 30.14 in 1.8 mi Calm Calm - N/A Snow Light Snow
9:35 AM 30.2 °F - 28.4 °F 93% 30.14 in 3.0 mi Calm Calm - N/A Snow Light Snow
9:55 AM 30.2 °F - 28.4 °F 93% 30.15 in 2.5 mi Calm Calm - N/A Snow Light Snow
10:15 AM 30.2 °F - 28.4 °F 93% 30.15 in 7.0 mi Calm Calm - N/A Snow Light Snow
10:35 AM 30.2 °F - 28.4 °F 93% 30.16 in 10.0 mi Calm Calm - N/A   Overcast
11:15 AM 32.0 °F - 30.2 °F 93% 30.18 in 10.0 mi Calm Calm - N/A   Overcast
11:35 AM 32.0 °F - 30.2 °F 93% 30.18 in 10.0 mi Calm Calm - N/A   Overcast
11:55 AM 33.8 °F - 30.2 °F 87% 30.19 in 10.0 mi Calm Calm - N/A   Overcast
12:15 PM 33.8 °F - 30.2 °F 87% 30.19 in 10.0 mi Calm Calm - N/A   Overcast
12:35 PM 33.8 °F - 28.4 °F 81% 30.19 in 10.0 mi Calm Calm - N/A   Overcast
12:55 PM 33.8 °F - 28.4 °F 81% 30.20 in 10.0 mi Calm Calm - N/A   Overcast
1:15 PM 33.8 °F - 26.6 °F 75% 30.20 in 10.0 mi Calm Calm - N/A   Overcast
1:35 PM 35.6 °F 32.8 °F 26.6 °F 70% 30.20 in 10.0 mi NNE 3.5 mph - N/A   Overcast
1:55 PM 35.6 °F 30.7 °F 26.6 °F 70% 30.20 in 10.0 mi NE 5.8 mph - N/A   Overcast
2:15 PM 35.6 °F 31.7 °F 26.6 °F 70% 30.19 in 10.0 mi NNE 4.6 mph - N/A   Overcast
2:35 PM 35.6 °F 31.7 °F 26.6 °F 70% 30.19 in 10.0 mi North 4.6 mph - N/A   Overcast
2:55 PM 33.8 °F - 28.4 °F 81% 30.20 in 10.0 mi Calm Calm - N/A   Overcast
3:15 PM 35.6 °F - 28.4 °F 75% 30.20 in 10.0 mi North - - N/A   Overcast
3:35 PM 35.6 °F - 28.4 °F 75% 30.20 in 10.0 mi Calm Calm - N/A   Overcast
3:55 PM 35.6 °F - 28.4 °F 75% 30.20 in 10.0 mi Calm Calm - N/A   Overcast
4:15 PM 37.4 °F - 28.4 °F 70% 30.21 in 10.0 mi North - - N/A   Mostly Cloudy
4:35 PM 35.6 °F 31.7 °F 28.4 °F 75% 30.21 in 10.0 mi NE 4.6 mph - N/A   Mostly Cloudy
4:55 PM 39.2 °F 37.0 °F 28.4 °F 65% 30.22 in 10.0 mi North 3.5 mph - N/A   Overcast
5:15 PM 39.2 °F 35.9 °F 28.4 °F 65% 30.22 in 10.0 mi North 4.6 mph - N/A   Overcast
5:35 PM 37.4 °F 34.9 °F 28.4 °F 70% 30.23 in 10.0 mi North 3.5 mph - N/A   Overcast
5:55 PM 37.4 °F - 28.4 °F 70% 30.23 in 10.0 mi Calm Calm - N/A   Mostly Cloudy
6:15 PM 33.8 °F 30.8 °F 28.4 °F 81% 30.23 in 10.0 mi West 3.5 mph - N/A   Clear
6:35 PM 33.8 °F 30.8 °F 28.4 °F 81% 30.25 in 10.0 mi East 3.5 mph - N/A   Clear
6:55 PM 33.8 °F 27.0 °F 28.4 °F 81% 30.25 in 10.0 mi NNE 8.1 mph - N/A   Clear
7:15 PM 33.8 °F 29.6 °F 26.6 °F 75% 30.25 in 10.0 mi ENE 4.6 mph - N/A   Clear
7:35 PM 32.0 °F 27.5 °F 28.4 °F 87% 30.26 in 10.0 mi ENE 4.6 mph - N/A   Clear
7:55 PM 32.0 °F 27.5 °F 28.4 °F 87% 30.27 in 10.0 mi NE 4.6 mph - N/A   Mostly Cloudy
8:15 PM 33.8 °F - 26.6 °F 75% 30.27 in 10.0 mi Calm Calm - N/A   Overcast
8:35 PM 33.8 °F - 28.4 °F 81% 30.28 in 10.0 mi North - - N/A   Overcast
8:55 PM 33.8 °F - 28.4 °F 81% 30.28 in 10.0 mi North - - N/A   Overcast
9:15 PM 33.8 °F 29.6 °F 28.4 °F 81% 30.29 in 10.0 mi ENE 4.6 mph - N/A   Overcast
9:35 PM 35.6 °F - 28.4 °F 75% 30.29 in 10.0 mi North - - N/A   Overcast
10:15 PM 33.8 °F 30.8 °F 28.4 °F 81% 30.29 in 10.0 mi ENE 3.5 mph - N/A   Overcast
10:35 PM 33.8 °F 27.7 °F 28.4 °F 81% 30.29 in 10.0 mi NE 6.9 mph - N/A   Overcast
10:55 PM 35.6 °F 31.7 °F 28.4 °F 75% 30.30 in 10.0 mi NE 4.6 mph - N/A   Overcast
11:15 PM 35.6 °F - 28.4 °F 75% 30.31 in 10.0 mi North - - N/A   Overcast
11:35 PM 33.8 °F - 30.2 °F 87% 30.31 in 10.0 mi North - - N/A   Overcast
11:55 PM 33.8 °F - 30.2 °F 87% 30.31 in 10.0 mi Calm Calm - N/A   Overcast